Simultaneous Nadir Overpasses (SNOs) Predictions

Prediction of SNOs between GOES-16 and TERRA Satellite Orbit:

Table of predicted SNOs for the next 14.0 days since TLE Epoch: 1/20/2024
Index Date Time (GOES-16) GOES-16 Lat,Lon TERRA Lat,Lon Distance(km) Time Diff (sec)
1 01/20/2024 15:10:39 0.01, -75.22 0.68, -78.36 357.53 80
2 01/22/2024 14:51:05 -0.00, -75.22 -0.19, -74.29 106.39 80
3 01/23/2024 03:13:57 -0.00, -75.20 -0.84, -79.20 453.64 80
4 01/25/2024 02:54:22 -0.00, -75.22 -0.00, -75.11 11.71 80
5 01/27/2024 02:37:27 -0.01, -75.24 0.86, -71.03 477.67 80
6 01/27/2024 14:57:28 0.02, -75.26 0.15, -75.90 72.52 80
7 01/29/2024 14:43:13 0.02, -75.29 -0.69, -71.81 395.02 80
8 01/30/2024 03:03:24 -0.03, -75.28 -0.32, -76.73 164.00 80
9 02/01/2024 02:43:48 -0.02, -75.32 0.55, -72.64 304.23 80
10 02/01/2024 15:03:49 0.02, -75.34 0.50, -77.50 245.89 80
